2020-061X (46293 NORAD) Tracking and Keplerian Element Data

This shows tracking and keplerian element data for the satellite.

Feedback or suggestion? Click here.




ElementValue
Catalog46293
Name2020-061X
Epoch Orbit313
Epoch Day268.34626061
Epoch Year2020
RAAN341.0917
Inclination97.5174
Eccentricity0.000228
Argument of Perigee216.9421
Mean Anonmoly143.1651
Mean Motion15.10259706
Decay Rate4.74E-06
L11 46293U 20061X 20268.34626061 .00000474 00000-0 32774-4 0 9991
L22 46293 97.5174 341.0917 0002280 216.9421 143.1651 15.10259706 3135

Live tracking and technical data element details for 2020-061X (NORAD 46293). 2020-061X can be tracked NOW for your location showing map with azimuth and elevation plus other details from your city location.

Track the satellite on the map from your city or location and see movement details for azimuth, elevation, latitude, longitude, range, height, and movement on the map or in text.







IsCatalogInMostPopularTable: catalog: 46293, numindb: 2
Update: records affected: 1



GetName: 46293 2020-061X

Hit Count: updated at: Sat, 26 Sep 2020 15:55:00 GMT